Dewpoint
48 49 48 48 48 50 52 52 54 55 59 58 58 58 59 57 56 54 54 53 53 53 54 55 56 57 54 50 49 50 54 53 57 57 54 51 48 44 40 41 42 42 43 44 44 44 46
47 47 47 46 49 48 50 52 52 53 55 59 57 58 59 58 56 55 55 54 54 53 54 54 55 54 48 40 44 45 44 47 54 56 55 53 48 48 44 43 41 42 43 43 43 44 44
46 46 46 46 47 47 48 50 51 51 53 57 58 58 58 58 57 55 55 54 54 54 54 53 54 51 47 42 45 45 44 44 46 51 52 53 51 47 46 43 45 44 41 42 42 42 42
45 45 45 45 44 44 47 49 48 50 51 53 56 57 57 57 57 56 55 55 55 55 55 54 54 49 40 46 47 45 44 42 43 48 46 51 52 50 47 46 42 41 41 35 38 40 42
44 45 44 44 44 45 43 44 48 48 50 52 53 56 57 57 57 56 56 55 55 54 55 54 49 45 40 46 46 45 44 40 41 42 42 41 48 44 43 39 36 38 31 34 35 39 40
45 43 44 43 43 45 44 44 47 47 48 50 51 53 56 57 57 56 56 55 54 53 52 50 48 43 43 40 44 44 45 43 39 39 39 40 41 39 39 36 27 29 32 35 34 37 37
44 43 42 43 42 42 42 45 46 46 46 49 50 53 54 56 56 56 54 49 43 43 48 41 41 40 39 43 44 44 44 41 40 37 36 37 37 35 36 36 35 35 34 34 35 36 35
43 43 44 44 44 42 42 44 45 47 48 47 48 51 54 55 57 56 50 43 41 40 38 44 44 43 43 44 40 42 43 39 38 35 35 35 32 35 36 36 35 35 33 32 32 34 34
45 45 45 45 44 43 42 41 44 46 48 48 48 49 53 53 57 53 47 44 46 44 36 37 42 42 42 42 39 40 41 39 37 35 35 32 31 34 34 33 33 33 32 30 30 31 31
46 44 45 45 43 43 43 41 45 47 48 48 47 49 51 54 54 50 47 47 47 43 24 29 39 41 42 42 38 42 42 39 37 35 35 34 35 34 32 32 32 29 33 33 33 31 25
45 44 43 45 43 43 41 43 46 47 47 47 47 49 51 54 51 47 47 48 47 37 12 33 39 44 43 38 38 40 42 39 36 34 35 31 33 33 32 31 32 29 33 32 33 32 29
46 46 45 44 43 43 42 44 46 45 47 47 48 49 51 49 52 48 48 48 42 22 12 32 37 40 39 38 39 40 39 41 40 35 35 31 35 34 32 33 32 33 32 32 32 32 25
46 45 45 45 44 43 43 42 43 46 47 49 48 49 50 49 47 50 49 44 28 19 30 32 33 36 36 35 36 38 37 37 34 32 32 35 35 36 36 32 33 32 31 24 24 24 19
45 45 45 45 44 43 43 41 42 44 47 48 50 49 50 48 51 50 46 34 23 24 27 34 32 34 31 35 34 36 37 34 37 36 33 29 23 34 35 32 30 30 29 24 16 18 19
45 45 44 44 44 43 42 41 42 45 47 50 49 48 47 48 51 49 37 29 24 25 33 34 33 30 30 34 34 35 35 34 32 37 31 29 24 34 34 34 33 34 29 29 25 22 23
43 44 44 43 44 43 41 42 43 45 47 49 46 45 44 49 52 47 34 28 27 31 36 34 29 31 29 32 32 34 33 32 34 36 36 32 27 30 33 35 34 33 35 29 28 19 16
43 44 44 43 43 42 41 41 43 45 48 48 45 39 46 50 51 41 32 29 30 37 37 34 32 31 29 31 32 32 29 30 34 33 35 34 32 26 34 31 28 32 31 33 32 29 19
43 44 43 42 43 42 40 40 44 46 48 46 43 34 49 49 38 37 34 31 36 36 40 38 37 33 32 31 31 30 28 29 34 35 33 35 34 26 27 31 32 30 28 28 25 19 23
43 43 42 42 42 41 39 41 44 47 48 45 40 41 49 46 33 35 35 34 36 37 38 37 37 37 37 33 31 31 31 33 35 35 33 34 33 26 26 32 34 32 31 29 28 28 22
43 43 42 42 42 41 39 41 44 47 48 45 41 35 42 42 42 35 32 32 33 38 37 38 38 38 37 35 32 30 31 33 35 35 37 36 34 30 24 29 33 32 33 32 30 26 23
42 43 41 41 42 41 39 42 44 47 48 46 43 36 37 32 36 35 34 33 32 35 38 37 38 37 37 36 36 33 32 32 34 36 37 37 31 33 33 32 34 34 33 34 31 29 24
42 42 42 42 41 40 39 41 44 48 49 44 41 40 39 35 38 33 34 35 35 35 38 36 36 36 38 37 35 31 33 32 34 35 35 38 31 33 31 34 35 33 34 32 34 30 27
42 42 42 41 41 39 39 43 44 47 48 41 42 44 39 37 38 33 33 34 33 37 38 38 39 39 38 39 40 39 37 39 38 36 36 36 33 32 27 33 34 29 32 33 32 34 29
42 42 41 41 41 39 39 41 43 46 48 46 44 44 40 36 36 33 35 34 37 38 36 40 40 40 40 43 42 41 39 39 40 39 38 35 33 33 29 32 27 36 39 34 31 32 34
42 42 41 40 41 40 39 40 41 45 46 45 46 45 44 36 36 35 38 37 37 39 40 39 39 41 43 42 39 37 37 36 37 39 38 38 34 32 31 31 32 36 37 34 31 32 34
42 42 41 40 41 41 39 40 41 44 45 45 45 48 46 39 36 36 37 39 39 39 39 41 43 44 43 42 38 34 29 31 29 32 34 37 34 33 30 29 24 27 41 42 39 35 37
41 41 41 40 40 41 40 41 41 44 44 45 45 49 46 41 40 40 38 39 41 39 37 37 39 40 44 40 36 34 32 32 28 30 33 32 33 30 29 29 29 32 33 40 33 31 34
42 41 41 40 41 41 40 41 40 43 45 45 44 48 47 42 42 41 41 40 40 39 36 39 40 41 40 37 36 36 33 32 29 29 31 30 29 30 30 29 22 35 32 30 30 34 34
42 41 40 41 41 41 40 41 40 42 44 45 42 45 49 43 42 45 44 43 42 41 42 42 40 42 42 40 38 39 35 32 31 27 31 30 31 31 31 29 32 35 34 35 34 34 33
Lifted_Index
8 8 8 8 8 7 7 6 5 3 2 1 1 1 1 2 3 4 5 5 6 6 6 6 6 6 6 6 7 7 7 6 4 4 4 5 6 7 7 7 7 6 5 5 5 5 4
9 9 9 9 8 8 7 7 6 4 3 2 1 1 1 2 3 4 5 5 5 6 6 6 6 7 7 7 8 8 7 6 5 4 4 5 6 7 7 7 7 6 6 5 5 5 5
9 10 9 9 9 9 9 8 7 6 5 3 2 2 2 2 3 4 5 5 5 5 6 6 7 7 7 8 9 9 8 7 6 5 5 6 6 6 7 7 7 6 6 6 5 5 5
10 10 10 10 10 10 10 9 9 8 6 5 4 3 2 2 3 4 4 5 5 5 5 6 7 7 7 8 9 9 9 8 7 7 7 7 7 7 7 7 7 6 6 5 5 5 5
10 10 11 11 11 11 11 11 10 9 8 7 5 4 3 3 3 4 4 5 5 5 5 6 7 6 6 7 8 9 9 9 8 8 8 8 8 8 7 7 6 5 5 5 5 5 5
11 11 12 12 12 12 12 12 11 11 10 8 7 5 4 3 3 4 4 5 6 6 6 7 7 7 6 7 8 8 9 9 8 8 8 8 8 8 7 6 5 5 5 5 5 5 5
11 12 12 12 12 13 13 13 12 11 10 9 8 6 5 3 3 4 5 6 7 7 7 7 7 7 7 7 7 8 8 8 8 8 7 7 7 7 7 7 6 6 6 6 6 6 6
11 11 12 12 12 13 13 12 11 10 9 9 9 7 5 4 3 4 5 6 7 8 7 7 7 7 7 7 7 8 8 8 7 7 7 7 7 7 7 7 7 7 6 6 6 7 7
11 11 11 12 12 11 10 10 9 8 8 8 8 8 6 4 3 3 5 6 7 7 7 7 8 8 8 7 7 7 7 7 7 7 7 7 7 7 7 7 7 6 6 6 6 7 7
10 10 11 11 10 9 8 7 6 5 6 6 7 7 5 3 2 3 4 6 7 6 6 6 7 7 8 8 8 7 7 7 7 7 6 6 6 6 6 6 6 6 6 7 7 7 6
10 10 10 9 8 7 6 6 5 4 4 5 6 5 5 3 2 2 4 5 6 5 5 5 7 7 7 7 7 7 7 7 7 6 6 6 6 6 6 6 6 6 7 7 7 6 5
9 9 9 8 6 6 5 5 4 3 4 4 4 4 4 4 2 2 3 5 6 5 4 5 6 6 7 7 7 6 7 6 6 5 5 6 6 7 6 6 6 6 6 6 5 5 4
9 9 8 6 6 5 5 4 3 3 3 3 3 3 4 4 3 2 3 4 5 5 5 5 6 6 6 6 6 6 5 5 5 5 5 5 6 6 6 5 5 4 4 3 2 2 2
9 8 7 6 5 5 4 3 2 2 2 2 3 3 4 5 4 3 3 3 4 5 5 6 6 5 5 5 5 5 5 4 5 5 5 4 4 4 4 3 2 2 2 1 0 1 1
9 8 7 5 5 4 3 3 2 1 1 2 3 4 5 5 5 3 2 2 4 5 5 5 5 5 5 5 5 4 4 5 5 6 5 4 4 3 3 2 1 1 1 0 0 0 1
9 8 7 6 5 4 3 2 2 1 1 2 4 5 5 5 5 3 3 3 4 4 5 5 5 5 5 4 4 4 4 5 6 6 6 5 5 4 3 2 1 1 1 0 0 0 0
10 9 7 6 5 4 3 2 2 1 1 3 4 5 5 5 4 4 3 3 4 4 4 5 5 5 4 4 4 4 4 5 6 6 6 6 6 5 4 3 2 2 1 1 1 0 0
10 9 7 6 6 5 4 3 2 1 2 3 4 4 4 4 4 3 3 3 3 3 4 4 5 5 4 4 4 3 4 5 6 6 6 6 6 4 3 3 2 2 2 1 1 1 1
10 9 7 7 6 6 5 3 2 2 2 4 4 3 3 4 4 3 3 2 3 3 3 4 4 4 4 4 4 4 4 5 5 5 6 6 5 3 3 2 2 2 2 1 1 1 1
10 9 8 7 7 6 6 4 3 3 3 4 3 3 3 4 4 3 2 2 2 3 3 3 4 4 4 4 4 4 5 5 5 5 5 5 4 3 2 2 2 1 1 1 1 1 2
11 9 8 7 7 7 6 6 4 3 3 4 3 3 4 4 4 3 2 2 2 2 3 3 3 3 3 3 3 4 5 5 5 4 4 4 3 3 2 2 2 2 2 2 2 2 2
11 10 8 7 7 7 7 7 5 5 4 3 3 3 4 4 3 2 2 2 2 2 2 3 3 3 3 3 3 4 4 4 4 4 4 3 3 3 3 3 3 3 3 3 3 3 3
11 10 9 8 7 8 8 7 7 6 5 4 4 3 3 3 2 2 2 1 1 2 2 2 2 2 2 3 3 4 4 4 3 3 3 3 3 3 2 2 2 2 3 3 3 3 3
11 11 10 9 9 9 9 8 8 7 6 5 4 3 3 2 2 2 1 1 2 2 2 2 2 2 2 3 3 4 4 4 3 3 4 4 4 3 2 1 1 1 2 3 3 4 4
11 11 11 10 10 10 10 9 9 8 7 6 4 3 2 2 2 2 1 1 2 2 2 2 2 2 3 3 3 3 3 3 3 3 4 4 4 3 2 1 1 1 2 3 3 3 3
12 11 11 11 11 11 11 10 9 9 7 6 4 2 2 1 2 1 1 1 1 1 2 2 2 2 3 3 3 3 3 3 3 3 4 4 4 3 2 1 1 2 2 2 3 2 2
12 11 11 11 11 11 11 11 10 9 8 6 4 2 2 1 1 1 1 1 1 1 1 2 2 3 3 3 3 3 3 3 3 3 3 4 3 2 2 2 2 2 2 2 2 2 1
12 11 11 11 11 11 11 11 10 9 8 6 4 2 2 1 1 1 1 1 1 1 1 2 2 3 3 3 3 3 3 3 3 3 3 3 3 2 2 2 2 3 3 3 3 2 2
12 11 11 10 11 11 11 11 10 10 8 6 4 2 2 2 1 1 1 1 1 1 2 2 2 3 3 3 3 3 2 2 3 3 3 3 3 3 3 3 3 3 3 3 3 3 2